User: anonymous   Login
Location: Newark
(40.3500°N, 15.2333°E)
Time: 06:15:19
(UTC+00:00)
Language:

Courier 1B - Orbit

View from above orbital plane
View from above orbital plane
View from above satellite
View from above satellite

Ground track
Ground track

The orbit data is extracted from the following two-line orbital elements,

1    58U 60013A   20021.49615814  .00000088  00000-0  12972-5 0  9998
2    58  28.3274 125.2528 0165056 284.3455  73.8818 13.46320567919191
Epoch (UTC): 21 January 2020 11:54:28
Eccentricity: 0.0165056
inclination: 28.3274°
perigee height: 962 km
apogee height: 1209 km
right ascension of ascending node: 125.2528°
argument of perigee: 284.3455°
revolutions per day: 13.46320567
mean anomaly at epoch: 73.8818°
orbit number at epoch: 91919

The dashed part of the orbit path shows where the satellite is in the earth's shadow,  

DLR